Location: Eisingen in Unterfranken
(49.7591°N, 9.8347°E)
Time: 08:37:48
(UTC+01:00)

Envisat - Pass Details

Date: 27 November 2022
Orbit: 763 x 765 km, 98.2° (Epoch: 04 February)

Event Time Altitude Azimuth Distance (km) Brightness Sun altitude
Rises 05:42:36 0° 7° (N) 3,247 6.2 -20.0°
Reaches altitude 10° 05:45:05 10° 359° (N) 2,316 5.4 -19.6°
Enters shadow 05:49:14 33° 305° (NW) 1,273 3.6 -19.0°
